Location: Newark
(25.6108°S, 54.5803°W)
Time: 10:10:12
(UTC+00:00)

deb Explorer IX - Pass Details

Date: 31 October 2020
Orbit: 538 x 1104 km, 38.8° (Epoch: 23 November)

Event Time Altitude Azimuth Distance (km) Brightness Sun altitude
Rises 20:04:21 0° 270° (W) 3,562 ? 23.4°
Reaches altitude 10° 20:07:28 10° 259° (W) 2,519 ? 22.7°
Maximum altitude 20:12:33 29° 200° (SSW) 1,417 ? 21.6°
Drops below altitude 10° 20:17:00 10° 140° (SE) 2,184 ? 20.6°
Sets 20:19:32 0° 128° (SE) 3,013 ? 20.0°
